Weather History for KLND - September, 2012

Change the Weather History Date:

Sunday, September 23, 2012

  Actual Average Record
Temperature  
Mean Temperature 65 °F 55 °F  
Max Temperature 78 °F 69 °F 89 °F (1905)
Min Temperature 52 °F 41 °F 19 °F (1895)
Degree Days  
Heating Degree Days 0 10  
Month to date heating degree days 50 135  
Since 1 July heating degree days 52 175  
Cooling Degree Days 0 0  
Month to date cooling degree days 36 26  
Year to date cooling degree days 779 471  
Growing Degree Days 14 (Base 50)    
Moisture  
Dew Point 30 °F    
Average Humidity 43    
Maximum Humidity 67    
Minimum Humidity 18    
Precipitation  
Precipitation 0.09 in 0.04 in 0.42 in (1891)
Month to date precipitation 0.23 0.73  
Year to date precipitation 4.91 9.61  
Snow  
Snow 0.00 in 0.10 in - ()
Month to date snowfall 0.0 1.5  
Since 1 July snowfall 0.0 1.5  
Since 1 September snowfall 0.0 1.5  
Snow Depth 0.00 in    
Sea Level Pressure  
Sea Level Pressure 29.98 in    
Wind  
Wind Speed 5 mph (West)    
Max Wind Speed 15 mph    
Max Gust Speed 41 mph    
Visibility 10 miles    
Events Rain    
T = Trace of Precipitation, MM = Missing Value Source: NWS Daily Summary

Daily Weather History Graph

Daily Weather History Graph

Search for Another Location

Airport or City:

Trip Planner

Search our weather history database for the weather conditions in past years. The results will help you decide how hot, cold, wet, or windy it might be!

Date:

Astronomy

Sep. 23, 2012 Rise Set
Actual Time 7:03 AM MDT 7:09 PM MDT
Civil Twilight 6:35 AM MDT 7:37 PM MDT
Nautical Twilight 6:02 AM MDT 8:10 PM MDT
Astronomical Twilight 5:28 AM MDT 8:44 PM MDT
Moon 3:20 PM MDT (9/23) 12:11 AM MDT (9/23)
Length of Visible Light 13h 01m
Length of Day
12h 05m
First Quarter, 60% of the Moon is Illuminated
Sep 23
First Quarter
Sep 29
Full
Oct 8
Last Quarter
Oct 15
New
Oct 21
First Quarter

Hourly Weather History & Observations

Time (MDT) Temp. Dew Point Humidity Pressure Visibility Wind Dir Wind Speed Gust Speed Precip Events Conditions
12:53 AM 59.0 °F 23.0 °F 25% 29.98 in 10.0 mi Calm Calm - N/A   Clear
1:53 AM 57.9 °F 21.0 °F 24% 29.99 in 10.0 mi West 8.1 mph - N/A   Clear
2:53 AM 57.9 °F 19.9 °F 23% 29.98 in 10.0 mi West 6.9 mph - N/A   Clear
3:53 AM 57.9 °F 19.0 °F 22% 29.97 in 10.0 mi WSW 10.4 mph - N/A   Clear
4:53 AM 59.0 °F 19.9 °F 22% 29.96 in 10.0 mi WSW 9.2 mph - N/A   Clear
5:53 AM 53.1 °F 21.9 °F 30% 29.99 in 10.0 mi SSW 3.5 mph - N/A   Clear
6:53 AM 53.1 °F 21.9 °F 30% 30.01 in 10.0 mi Calm Calm - N/A   Clear
7:53 AM 52.0 °F 23.0 °F 32% 30.04 in 10.0 mi Calm Calm - N/A   Clear
8:53 AM 57.9 °F 27.0 °F 31% 30.04 in 10.0 mi WNW 3.5 mph - N/A   Clear
9:53 AM 62.1 °F 28.0 °F 28% 30.03 in 10.0 mi Calm Calm - N/A   Clear
10:53 AM 69.1 °F 28.0 °F 22% 30.00 in 10.0 mi Calm Calm - N/A   Clear
11:53 AM 73.0 °F 28.0 °F 19% 29.96 in 10.0 mi Calm Calm - N/A   Clear
12:53 PM 73.9 °F 28.0 °F 18% 29.96 in 10.0 mi East 3.5 mph - N/A   Clear
1:53 PM 75.9 °F 30.9 °F 19% 29.94 in 10.0 mi Variable 5.8 mph - N/A   Clear
2:53 PM 75.9 °F 28.0 °F 17% 29.92 in 9.0 mi NE 5.8 mph - N/A   Clear
3:53 PM 75.9 °F 30.0 °F 19% 29.90 in 7.0 mi North 6.9 mph - N/A   Clear
4:53 PM 75.0 °F 28.9 °F 18% 29.89 in 8.0 mi North 3.5 mph - N/A   Partly Cloudy
5:37 PM 75.2 °F 30.2 °F 19% 30.09 in 10.0 mi WNW 10.4 mph 20.7 mph 0.00 in Rain Light Rain
5:53 PM 73.9 °F 28.9 °F 19% 29.93 in 8.0 mi West 6.9 mph - 0.00 in   Overcast
6:53 PM 70.0 °F 37.0 °F 30% 29.98 in 10.0 mi West 15.0 mph 33.4 mph 0.00 in   Overcast
7:53 PM 70.0 °F 36.0 °F 29% 29.99 in 10.0 mi WNW 11.5 mph 20.7 mph N/A   Overcast
8:53 PM 64.9 °F 44.1 °F 47% 30.02 in 10.0 mi WNW 9.2 mph - 0.01 in Rain Light Rain
9:53 PM 61.0 °F 46.0 °F 58% 30.02 in 10.0 mi ESE 4.6 mph - 0.07 in Rain Light Rain
10:53 PM 57.9 °F 48.0 °F 70% 30.01 in 10.0 mi South 5.8 mph - 0.01 in   Overcast
11:53 PM 57.0 °F 46.0 °F 67% 29.99 in 10.0 mi West 10.4 mph - N/A   Clear